EW5546 Weather Reports


time (UTC)temp
F
wind
direction
speed
knots
gust
knots
rain 1hr
in
rain 24hr
in
rain mn
in
humidity
%
barometer
mb
20260906025522 59 231 1.7 2.6 0.00 0.00 0.00 63 1014.0
20260906024517 59 203 1.7 3.5 0.00 0.00 0.00 63 1014.0
20260906023522 59 174 0.9 1.7 0.00 0.00 0.00 64 1014.0
20260906022523 59 221 0.9 1.7 0.00 0.00 0.00 64 1014.0
20260906021523 59 248 0.9 2.6 0.00 0.00 0.00 64 1014.0
20260906020523 59 227 0.9 1.7 0.00 0.00 0.00 65 1014.0
20260906015523 59 195 0.9 1.7 0.00 0.00 0.00 65 1014.0
20260906014541 59 225 0.9 1.7 0.00 0.00 0.00 66 1014.0
20260906013526 59 203 0.0 0.9 0.00 0.00 0.00 66 1014.0
20260906012523 59 225 0.9 0.9 0.00 0.00 0.00 65 1014.0
20260906011523 59 160 0.9 0.9 0.00 0.00 0.00 65 1014.0
20260906010552 59 224 0.9 1.7 0.00 0.00 0.00 65 1014.0
20260906005543 59 222 0.9 1.7 0.00 0.00 0.00 65 1014.0
20260906004517 59 208 0.9 0.9 0.00 0.00 0.00 64 1014.0
20260906003522 59 235 0.9 1.7 0.00 0.00 0.00 64 1014.0
20260906002524 59 225 0.0 0.9 0.00 0.00 0.00 64 1014.0
20260906001516 59 238 1.7 3.5 0.00 0.00 0.00 64 1014.0
20260906000557 0 23 0.9 0.9 0.00 0.00 0.00 1014.0
20260906000019 59 207 1.7 1.7 0.00 0.00 0.00 64 1014.0
20260905235023 59 243 0.9 1.7 0.00 0.00 0.00 64 1014.0
20260905234023 59 214 0.9 1.7 0.00 0.00 0.00 64 1013.0
20260905233022 59 209 0.9 1.7 0.00 0.00 0.00 64 1013.0
20260905232024 60 176 0.0 0.9 0.00 0.00 0.00 63 1013.0
20260905231018 60 206 0.9 1.7 0.00 0.00 0.00 63 1013.0
20260905230034 60 231 1.7 2.6 0.00 0.00 0.00 62 1013.0
20260905225020 60 209 0.9 0.9 0.00 0.00 0.00 61 1013.0
20260905224024 60 216 1.7 1.7 0.00 0.00 0.00 61 1013.0
20260905223042 60 216 0.9 1.7 0.00 0.00 0.00 60 1013.0
20260905222143 60 203 0.9 1.7 0.00 0.00 0.00 59 1013.0
20260905221023 60 240 0.9 1.7 0.00 0.00 0.00 59 1013.0
20260905220022 60 128 0.9 2.6 0.00 0.00 0.00 59 1013.0
20260905215023 61 234 0.9 1.7 0.00 0.00 0.00 59 1013.0
20260905214037 61 248 0.9 0.9 0.00 0.00 0.00 58 1013.0
20260905213033 61 239 0.9 1.7 0.00 0.00 0.00 57 1013.0
20260905212024 61 210 0.9 0.9 0.00 0.00 0.00 56 1013.0
20260905211023 61 205 0.9 2.6 0.00 0.00 0.00 55 1013.0
20260905210020 61 211 0.9 3.5 0.00 0.00 0.00 54 1012.7
20260905205027 62 220 0.0 0.9 0.00 0.00 0.00 53 1012.0
20260905204023 62 224 0.0 0.9 0.00 0.00 0.00 53 1012.0
20260905203044 62 225 0.9 1.7 0.00 0.00 0.00 53 1012.0
20260905202024 62 200 1.7 2.6 0.00 0.00 0.00 52 1012.0
20260905201023 62 257 0.9 2.6 0.00 0.00 0.00 52 1012.0
20260905200023 62 204 0.9 0.9 0.00 0.00 0.00 53 1012.0
20260905195022 62 58 2.6 4.3 0.00 0.00 0.00 54 1012.0
20260905194022 63 202 0.9 1.7 0.00 0.00 0.00 53 1012.0
20260905193043 62 241 0.9 1.7 0.00 0.00 0.00 54 1012.0
20260905192024 63 200 0.9 1.7 0.00 0.08 0.00 53 1012.0
20260905191018 63 237 0.9 2.6 0.00 0.08 0.00 53 1012.0
20260905190027 63 229 0.9 1.7 0.00 0.08 0.00 52 1012.0
20260905185017 63 209 0.9 1.7 0.00 0.08 0.00 51 1012.0
20260905184023 63 233 0.9 1.7 0.00 0.08 0.00 50 1012.0
20260905183023 64 196 0.9 0.9 0.00 0.08 0.00 49 1012.3
20260905182023 64 226 0.9 1.7 0.00 0.08 0.00 48 1013.0
20260905181123 64 0.0 0.0 0.00 0.08 0.00 48 1012.0
20260905180018 64 206 0.9 1.7 0.00 0.08 0.00 48 1012.0
20260905175023 64 213 0.9 0.9 0.00 0.08 0.00 48 1012.0
20260905174023 64 248 0.0 0.9 0.00 0.08 0.00 47 1012.0
20260905173023 65 203 0.0 1.7 0.00 0.08 0.00 46 1012.0
20260905172023 65 241 0.9 1.7 0.00 0.08 0.00 46 1012.0
20260905171044 65 225 0.9 3.5 0.00 0.08 0.00 46 1012.0
20260905170022 65 202 0.9 2.6 0.00 0.08 0.00 45 1012.0
20260905165019 65 203 0.9 1.7 0.00 0.08 0.00 45 1012.0
20260905164016 65 174 0.0 0.9 0.00 0.08 0.00 44 1012.0
20260905163018 65 210 0.9 1.7 0.00 0.08 0.00 44 1012.0
20260905162017 65 225 1.7 2.6 0.00 0.08 0.00 43 1012.0
20260905161023 65 82 1.7 3.5 0.00 0.08 0.00 43 1012.0
20260905160015 66 226 0.9 1.7 0.00 0.08 0.00 43 1012.0
20260905155022 66 224 1.7 2.6 0.00 0.08 0.00 43 1012.0
20260905154018 66 236 1.7 2.6 0.00 0.08 0.00 42 1012.0
20260905153043 67 226 0.9 1.7 0.00 0.08 0.00 41 1012.0
20260905152023 67 177 0.9 1.7 0.00 0.08 0.00 42 1012.0
20260905151024 68 237 1.7 5.2 0.00 0.08 0.00 41 1012.0
20260905150023 68 202 1.7 2.6 0.00 0.08 0.00 40 1011.7
20260905145016 69 244 0.9 1.7 0.00 0.08 0.00 40 1011.0
20260905144023 69 263 1.7 4.3 0.00 0.08 0.00 40 1011.0
20260905143019 70 215 1.7 3.5 0.00 0.08 0.00 39 1011.0
20260905142045 71 208 1.7 2.6 0.00 0.08 0.00 39 1011.0
20260905141522 71 215 1.7 1.7 0.00 0.08 0.00 39 1011.0
20260905140523 71 204 1.7 4.3 0.00 0.08 0.00 39 1011.0
20260905135522 73 176 1.7 2.6 0.00 0.08 0.00 40 1011.0
20260905134523 71 219 1.7 3.5 0.00 0.08 0.00 41 1011.0
20260905133522 70 180 1.7 3.5 0.00 0.08 0.00 41 1011.0
20260905132526 71 149 1.7 2.6 0.00 0.08 0.00 41 1011.0
20260905131525 70 263 1.7 2.6 0.00 0.08 0.00 40 1011.0
20260905130523 71 33 1.7 1.7 0.00 0.08 0.00 39 1011.0
20260905125528 72 273 2.6 3.5 0.00 0.08 0.00 40 1010.0
20260905124540 72 195 1.7 2.6 0.00 0.08 0.00 40 1010.3
20260905123520 71 232 1.7 2.6 0.00 0.08 0.00 41 1011.0
20260905122522 71 239 0.9 2.6 0.00 0.08 0.00 41 1011.0
20260905121523 71 210 0.9 1.7 0.00 0.08 0.00 41 1011.0
20260905120522 70 228 1.7 1.7 0.00 0.08 0.00 41 1011.0
20260905115522 70 208 2.6 3.5 0.00 0.08 0.00 41 1011.0
20260905114522 70 132 1.7 6.1 0.00 0.08 0.00 41 1010.7
20260905113527 70 191 0.9 1.7 0.00 0.08 0.00 42 1010.0
20260905112517 71 239 2.6 5.2 0.00 0.08 0.00 43 1010.0
20260905111523 70 251 1.7 1.7 0.00 0.08 0.00 43 1010.0
20260905110543 70 240 1.7 1.7 0.00 0.08 0.00 43 1010.0
20260905105522 69 224 1.7 3.5 0.00 0.08 0.00 44 1010.0
20260905104523 69 205 2.6 3.5 0.00 0.08 0.00 45 1010.0
20260905103542 69 203 1.7 3.5 0.00 0.08 0.00 45 1010.0
20260905102523 68 228 1.7 3.5 0.00 0.08 0.00 46 1010.0
20260905101537 67 189 1.7 2.6 0.00 0.08 0.00 47 1010.0
20260905100527 67 89 0.9 1.7 0.00 0.08 0.00 47 1010.0
20260905095524 67 106 1.7 3.5 0.00 0.08 0.00 47 1010.0
20260905094526 68 136 2.6 5.2 0.00 0.08 0.00 47 1010.0
20260905093522 68 213 1.7 2.6 0.00 0.08 0.00 46 1010.0
20260905092523 69 235 2.6 4.3 0.00 0.08 0.00 47 1010.0
20260905091522 68 133 1.7 2.6 0.00 0.08 0.00 48 1010.0
20260905090522 67 278 1.7 3.5 0.00 0.08 0.00 50 1010.0
20260905085522 67 210 1.7 2.6 0.00 0.08 0.00 50 1010.0
20260905084516 67 234 1.7 2.6 0.00 0.08 0.00 52 1010.0
20260905083525 66 179 1.7 2.6 0.00 0.08 0.00 53 1010.0
20260905082524 66 175 1.7 3.5 0.00 0.08 0.00 54 1010.0
20260905081526 66 236 0.9 1.7 0.00 0.08 0.00 55 1010.0
20260905080524 65 208 1.7 2.6 0.00 0.08 0.00 56 1010.0
20260905075558 65 164 0.9 2.6 0.00 0.08 0.00 57 1010.0
20260905074524 65 153 1.7 3.5 0.00 0.08 0.00 57 1009.7
20260905073522 65 241 0.9 2.6 0.00 0.08 0.00 57 1009.0
20260905072516 65 241 0.9 1.7 0.00 0.08 0.00 58 1009.0
20260905071523 64 188 1.7 2.6 0.00 0.08 0.00 58 1009.0
20260905070557 64 230 1.7 1.7 0.00 0.08 0.00 58 1009.0
20260905065526 64 194 1.7 2.6 0.00 0.08 0.00 58 1009.0
20260905064522 64 100 1.7 1.7 0.00 0.08 0.00 59 1009.0
20260905063531 64 245 1.7 3.5 0.00 0.08 0.00 59 1009.0
20260905062521 64 172 1.7 3.5 0.00 0.08 0.00 58 1008.0
20260905061523 64 240 1.7 2.6 0.00 0.08 0.00 59 1008.0
20260905060525 63 202 1.7 2.6 0.00 0.08 0.00 60 1008.0
20260905055522 63 211 1.7 2.6 0.00 0.08 0.00 60 1008.0
20260905054522 63 213 1.7 3.5 0.00 0.08 0.00 60 1008.0
20260905053525 63 230 1.7 2.6 0.00 0.08 0.00 60 1008.0
20260905052523 63 19 2.6 6.1 0.00 0.08 0.00 60 1008.0
20260905051523 63 226 1.7 3.5 0.00 0.08 0.00 61 1008.0
20260905050544 63 210 1.7 2.6 0.00 0.08 0.00 62 1008.0
20260905045524 63 2 0.9 3.5 0.00 0.08 0.00 63 1007.0
20260905044524 63 206 0.9 1.7 0.00 0.08 0.00 65 1007.0
20260905043603 63 97 1.7 3.5 0.00 0.08 0.00 66 1007.0
20260905042522 63 79 2.6 4.3 0.00 0.08 0.00 67 1007.0
20260905041522 63 31 1.7 3.5 0.00 0.08 0.00 68 1006.6
20260905040522 63 99 1.7 4.3 0.00 0.08 0.00 70 1005.9
20260905035525 63 66 2.6 5.2 0.00 0.08 0.00 70 1005.9
20260905034520 63 49 2.6 3.5 0.00 0.08 0.00 70 1005.9
20260905033523 63 157 0.9 3.5 0.00 0.08 0.00 69 1005.9
20260905032517 64 280 1.7 2.6 0.00 0.08 0.00 70 1004.9
20260905031517 64 211 0.9 1.7 0.00 0.08 0.00 70 1005.3
20260905030522 64 228 0.9 1.7 0.00 0.08 0.00 70 1005.9